Dewpoint
71 71 71 71 72 72 72 72 72 73 74 73 74 73 73 73 74 74 74 74 74 73 76 74 73 73 72 72 72 73 73 73 73 73 73 74 74 75 75 74 74 74 74 74 74 74 73 73 73 73 73 73 73 72 72 72 72 72 72 73 73 73 73 73 73 73 73 73 73 74 74 74 74 74 73 73 74 73 73 73 73 73 73 72 72
71 71 71 71 71 71 72 72 72 73 74 73 74 73 74 74 74 74 74 74 73 74 75 74 73 72 72 72 72 72 73 73 73 73 73 74 74 75 76 75 75 75 74 74 74 74 74 74 73 73 73 73 73 73 72 72 73 73 73 73 73 73 73 73 73 73 73 74 74 74 74 74 73 74 73 73 73 73 73 73 73 73 73 72 72
71 71 71 71 71 71 71 72 72 73 74 73 74 75 74 74 74 74 74 74 75 74 75 74 73 72 71 71 71 72 73 73 73 73 73 74 74 74 75 76 75 75 75 75 74 74 74 74 74 74 73 73 73 73 73 73 73 73 73 73 73 73 73 74 74 74 74 74 74 74 73 73 73 73 73 73 73 73 73 73 73 73 73 72 72
71 71 71 71 71 71 72 73 73 73 74 74 74 75 74 75 76 76 76 75 75 74 75 74 72 71 71 71 71 72 72 73 72 72 73 73 74 74 74 75 76 76 75 75 75 75 74 75 74 74 74 73 73 73 73 73 73 73 73 74 74 74 74 74 74 74 74 74 74 74 74 74 73 73 73 73 73 73 73 73 73 73 73 73 73
72 73 73 71 72 71 72 74 73 74 74 76 75 74 74 74 75 74 75 73 72 73 74 72 70 70 71 70 71 71 72 72 73 72 72 73 73 73 74 74 74 76 76 76 75 75 75 75 75 75 74 74 74 74 74 74 74 73 74 73 73 74 73 74 74 74 74 74 74 74 74 74 74 74 73 74 74 73 73 73 73 74 74 73 73
72 72 71 72 72 72 72 72 73 74 75 76 74 74 74 74 75 73 74 73 72 73 73 72 70 70 70 70 71 72 72 71 72 72 72 72 73 73 73 74 74 74 75 76 76 76 76 76 76 76 75 75 75 75 75 75 75 75 75 75 75 74 74 74 74 74 75 75 75 75 75 75 74 74 74 74 74 74 74 74 74 74 74 74 74
73 72 72 72 72 72 72 72 73 75 75 75 74 74 74 74 75 72 71 71 72 73 72 71 71 70 70 71 71 71 72 71 71 71 72 72 73 73 73 74 74 74 74 74 75 76 76 76 76 77 76 76 76 76 76 76 76 76 76 76 76 76 76 76 75 76 75 75 75 75 75 75 75 75 75 75 75 75 75 75 75 74 74 75 75
73 73 72 71 72 72 73 73 75 75 74 75 75 74 74 73 74 73 71 70 72 71 72 71 72 70 69 71 71 73 72 71 71 71 71 72 72 73 73 73 74 74 75 75 75 75 75 76 76 77 77 77 77 77 77 77 77 77 77 77 76 77 77 77 77 77 77 77 77 77 77 76 75 75 75 75 75 76 75 75 76 76 76 75 75
75 73 72 72 72 73 73 74 76 75 75 75 74 75 74 72 72 74 73 72 71 71 71 73 72 71 69 68 68 72 71 71 71 71 70 71 72 71 72 73 73 75 75 74 75 75 74 75 75 76 77 77 77 77 77 78 78 77 77 77 77 77 77 77 77 77 77 77 77 77 77 76 76 76 76 76 76 76 76 76 76 76 76 76 75
75 74 73 72 72 74 74 75 76 75 74 74 74 74 73 73 73 74 75 74 73 72 72 73 72 71 70 69 70 69 70 71 71 73 72 71 72 71 72 72 72 72 73 73 74 74 74 74 74 74 75 75 75 76 77 78 78 78 78 78 78 78 78 78 77 77 77 77 78 78 77 77 77 77 77 77 77 77 77 76 76 76 76 76 76
75 75 74 74 74 74 75 76 76 74 74 73 74 76 75 74 73 73 74 75 75 74 74 74 73 71 70 70 70 71 72 70 72 71 72 70 70 71 70 72 72 72 73 73 73 74 74 74 74 73 73 73 74 75 76 76 76 77 78 78 79 79 79 78 78 78 78 78 78 78 78 78 78 78 77 77 76 77 77 77 76 76 76 76 76
75 75 74 75 74 75 76 76 75 74 74 73 72 73 73 73 74 75 75 74 74 76 74 72 70 70 71 72 71 71 72 72 71 69 71 71 71 72 71 72 72 72 72 72 73 73 74 74 75 74 74 73 74 75 75 76 76 76 76 77 78 78 78 79 79 78 78 78 78 78 78 78 78 77 77 77 77 77 77 77 76 76 76 76 76
76 75 75 76 75 75 75 75 75 74 74 73 73 74 75 75 76 76 75 73 72 73 73 70 69 70 70 68 69 70 72 75 71 70 69 70 70 71 71 72 72 72 73 73 73 73 73 74 74 74 74 74 74 74 74 74 74 74 74 75 76 76 77 78 78 79 79 78 78 78 78 77 77 77 77 77 77 77 76 76 75 76 75 74 73
76 75 76 75 75 75 75 75 74 74 74 74 75 76 74 75 75 74 73 73 72 72 72 69 69 67 67 67 68 67 70 71 70 69 70 70 70 70 70 69 69 70 71 72 73 72 72 73 75 74 75 75 75 74 74 74 74 74 75 76 77 78 78 78 78 78 79 79 78 77 77 77 77 77 77 77 77 76 76 76 75 73 72 71 71
76 76 75 74 75 75 75 74 75 76 73 73 73 73 74 75 75 74 73 73 74 74 74 70 67 70 69 67 65 64 69 67 67 67 67 67 68 68 69 68 68 69 71 72 72 72 71 72 73 74 75 75 75 74 74 74 74 75 76 77 77 78 79 80 79 79 78 77 77 77 77 77 77 77 77 77 76 76 75 74 73 72 71 71 70
76 76 75 74 74 74 74 74 75 75 73 73 74 74 74 75 75 76 73 71 70 71 75 72 70 70 66 65 64 63 62 65 65 65 65 66 66 66 67 67 67 70 72 71 70 71 72 72 72 74 75 75 75 75 75 75 75 76 77 77 78 78 79 79 78 77 77 76 77 77 77 77 77 77 77 76 76 74 74 73 73 72 71 71 70
76 76 75 74 74 74 74 74 75 75 74 74 74 74 75 75 75 75 73 72 71 71 72 72 71 72 71 68 66 65 62 63 62 67 64 65 65 65 68 68 67 69 69 69 71 70 69 69 72 73 74 75 75 75 75 75 75 76 76 76 79 79 78 78 77 76 76 77 77 78 78 77 77 77 76 76 75 74 74 74 73 72 71 71 70
76 76 76 75 74 74 74 74 75 75 75 75 75 75 75 76 75 75 74 73 73 72 72 73 72 74 72 68 70 63 66 66 62 64 67 67 67 66 67 65 67 68 70 69 68 68 70 69 70 72 73 73 74 74 74 74 76 76 76 78 79 79 78 77 76 76 77 77 77 77 77 77 77 77 75 75 75 74 73 72 72 71 69 70 69
76 76 76 76 75 75 75 75 75 75 77 75 75 75 75 75 76 75 75 75 74 73 71 70 71 72 72 71 72 72 66 66 66 66 64 66 65 65 64 64 63 64 64 65 65 66 68 69 69 68 71 72 72 73 74 73 74 76 79 81 78 78 77 76 76 76 77 77 77 77 77 77 77 76 75 75 74 73 72 71 70 69 69 69 69
76 76 76 76 75 75 75 75 75 75 77 77 76 75 76 76 76 76 75 76 75 73 71 70 71 70 74 70 70 71 69 66 66 64 63 62 64 64 65 62 61 62 63 63 63 65 64 67 65 66 70 70 72 72 73 74 75 77 79 77 78 78 77 76 76 77 77 76 77 77 77 77 76 76 75 74 73 72 71 69 69 69 69 70 69
76 76 75 76 76 75 75 75 75 76 77 77 76 76 75 75 75 75 75 75 74 73 73 72 71 71 71 71 69 69 68 69 69 68 68 63 64 62 64 65 63 64 62 62 63 64 66 67 67 67 72 73 72 73 73 75 76 77 77 76 77 78 77 75 75 76 76 76 77 77 77 77 76 75 75 73 72 71 70 68 68 69 69 69 69
75 76 75 76 76 76 75 75 75 75 76 77 76 76 76 75 75 74 74 73 75 74 75 74 73 74 71 71 70 70 69 69 68 67 65 64 61 61 63 63 65 67 64 62 64 63 63 65 66 66 68 71 71 73 74 75 77 76 76 76 77 77 77 75 75 76 76 75 75 76 77 77 76 75 74 72 71 71 70 67 68 68 68 68 69
74 75 75 76 76 76 75 75 75 77 77 77 76 76 75 75 75 75 75 73 73 73 76 75 74 73 71 72 70 68 68 66 68 67 65 66 64 62 60 64 62 63 67 64 69 67 65 64 65 64 71 70 72 74 76 76 77 76 76 75 75 76 76 76 76 76 73 74 76 76 76 75 74 74 73 72 71 72 71 67 68 68 68 67 68
74 75 75 75 76 76 76 76 76 76 76 76 76 76 76 75 75 75 75 75 75 75 73 73 72 73 72 71 71 70 70 69 68 69 69 67 63 62 63 66 68 64 63 68 64 63 66 64 64 65 68 70 72 74 76 77 78 77 77 76 75 75 76 77 77 76 74 74 72 73 75 75 74 72 72 72 72 71 71 67 67 67 67 66 68
74 74 74 75 76 76 76 76 76 76 76 76 76 76 75 75 75 74 75 75 74 74 74 74 73 73 73 72 71 70 70 70 69 68 67 67 66 65 64 66 66 68 71 67 67 66 67 68 69 68 68 71 72 76 76 76 76 76 76 76 75 75 75 76 77 76 74 74 74 75 76 76 75 74 73 73 72 71 71 67 67 66 67 67 67
73 74 74 75 76 76 76 76 76 76 76 76 76 76 76 75 75 75 74 75 75 75 75 74 74 74 73 73 72 72 71 69 70 69 67 65 66 63 66 67 67 67 69 70 70 65 67 68 69 74 73 75 75 76 78 76 76 76 76 75 75 73 74 75 76 76 75 74 73 74 75 75 75 75 74 74 72 71 69 68 66 66 66 66 66
74 74 75 75 76 76 76 76 76 76 76 76 76 76 77 77 77 75 75 74 75 75 74 73 73 73 73 74 74 73 72 72 70 69 69 69 67 68 68 65 65 63 67 69 69 66 66 68 69 72 74 77 76 77 77 77 75 76 76 77 76 73 73 74 74 75 75 74 74 74 74 75 75 75 74 73 72 71 68 67 67 66 66 66 66
74 75 75 75 75 76 76 76 76 76 76 76 76 76 77 77 76 76 75 75 74 75 74 74 74 74 73 74 74 74 73 71 71 70 71 72 72 69 69 69 66 65 66 68 67 70 68 70 73 72 75 75 76 77 77 76 76 76 77 77 76 75 73 73 73 74 74 74 74 74 74 74 74 75 74 74 73 71 68 67 66 66 65 65 65
74 75 74 75 76 75 75 75 76 76 76 76 76 76 77 77 76 76 76 75 76 75 74 75 75 74 74 74 75 75 74 74 72 71 72 75 72 70 71 68 70 65 66 66 68 69 72 69 67 74 74 75 75 75 76 77 75 75 76 76 76 76 73 71 72 72 72 73 73 73 73 74 74 74 74 74 73 71 67 66 66 66 65 64 65
73 73 75 75 75 76 76 75 75 75 76 75 76 76 77 77 76 76 76 76 76 76 76 75 75 75 75 75 74 74 75 73 72 71 74 74 73 73 72 71 71 67 69 66 68 68 71 71 69 72 76 74 73 75 75 76 74 76 77 76 76 75 72 71 71 71 71 72 72 72 73 73 73 73 72 71 71 69 66 66 65 65 64 62 64
74 74 74 74 75 75 76 75 75 75 75 75 76 76 77 76 76 76 76 76 76 76 76 76 75 75 75 74 74 74 75 74 74 73 74 75 74 73 74 73 72 71 70 69 68 72 69 73 72 71 71 73 72 74 73 75 75 75 76 76 76 73 72 74 72 72 71 71 70 70 70 71 71 70 70 70 70 69 68 67 65 64 64 63 63
74 74 74 74 74 74 74 74 74 75 75 75 76 76 76 76 76 76 75 76 76 76 75 76 75 76 75 75 75 75 75 75 74 73 74 74 74 73 73 73 73 71 71 71 69 69 71 70 71 71 71 73 74 73 74 75 76 74 77 77 77 74 77 76 73 72 71 70 69 69 69 68 68 68 69 69 69 69 69 68 67 65 64 62 62
74 74 74 74 74 74 74 74 74 75 75 75 76 76 76 76 76 76 76 75 75 75 76 76 75 76 77 76 76 76 75 75 74 73 73 73 73 74 73 72 73 72 72 71 70 70 71 71 71 71 73 73 71 75 73 73 75 76 75 77 78 76 76 76 76 73 71 70 69 68 68 67 67 67 68 69 69 69 69 68 68 66 64 62 61
74 73 74 74 74 74 74 74 75 74 75 76 75 75 75 75 75 75 75 76 75 75 75 75 75 75 76 76 76 75 75 75 74 73 73 72 72 71 73 73 73 73 73 71 70 70 70 72 71 72 71 74 72 74 73 72 73 76 75 76 75 76 76 77 77 76 72 70 68 67 67 67 67 67 68 68 69 68 68 68 67 65 64 63 61
74 74 73 73 74 74 74 74 74 74 75 75 75 75 75 75 75 75 75 76 75 75 75 75 75 75 75 75 75 75 74 74 75 74 73 73 72 73 72 72 72 72 72 72 72 70 70 71 72 71 73 75 73 73 74 74 76 76 76 75 74 74 75 75 76 75 72 70 69 68 67 66 67 67 66 67 67 66 66 65 64 63 61 60 58
73 74 74 73 73 73 74 74 74 74 74 75 75 75 75 75 75 75 75 75 75 75 75 75 75 75 75 75 74 74 74 74 74 75 74 74 74 74 73 74 73 73 73 72 73 72 71 70 73 71 73 72 73 73 73 75 74 75 75 76 75 75 74 74 75 75 73 71 70 68 67 67 66 66 65 65 65 64 63 63 62 62 61 59 58
72 72 73 73 73 73 72 73 74 74 74 74 74 74 75 75 75 75 75 75 75 75 75 75 75 75 75 75 74 74 74 74 74 73 73 74 74 74 73 74 74 73 73 73 73 72 72 71 71 72 73 73 74 75 75 74 75 75 76 75 74 74 76 74 74 74 72 71 70 69 68 67 66 66 65 65 64 63 62 62 61 61 61 59 58
71 71 71 71 72 72 72 73 73 74 74 74 74 74 74 74 74 74 75 75 74 74 74 74 74 75 74 75 74 74 74 73 73 73 74 74 73 73 73 74 74 73 73 73 73 73 72 72 72 71 73 71 73 73 74 75 74 73 74 75 75 75 76 75 73 71 72 73 73 74 70 68 67 65 65 65 64 63 62 62 61 61 60 59 56
70 70 70 71 72 72 72 72 72 73 73 73 74 74 74 74 74 74 74 74 74 74 74 73 73 73 73 74 74 74 74 74 73 73 73 73 72 73 74 74 73 73 72 73 72 72 72 71 71 72 71 72 72 72 74 75 75 74 73 73 72 75 76 75 73 73 72 72 71 70 70 70 69 69 66 64 63 62 62 62 61 60 60 58 56
70 70 69 69 70 71 71 71 72 72 73 73 73 73 73 73 73 73 73 73 73 73 73 73 73 72 72 72 72 73 74 74 74 74 73 73 73 72 73 73 73 73 72 72 72 71 71 70 70 70 72 71 72 72 73 73 72 73 74 74 72 71 72 75 74 73 74 74 72 71 70 68 68 67 64 64 64 64 63 63 63 63 62 61 58
69 69 69 69 69 70 70 71 71 71 71 71 72 72 72 72 72 72 72 72 72 72 72 72 72 72 72 72 72 72 74 75 75 74 74 74 73 72 73 73 73 73 72 72 72 72 71 71 70 71 70 70 71 71 70 71 71 69 73 74 73 73 73 72 72 74 74 73 74 72 73 72 72 72 71 71 71 68 66 65 65 65 64 61 60
70 71 71 70 69 69 69 70 70 70 71 71 72 69 70 72 72 71 71 72 72 72 72 72 71 71 71 71 71 74 75 74 73 73 71 73 74 73 72 72 73 73 72 72 72 71 71 70 70 70 69 69 69 70 70 70 71 72 71 72 71 71 72 72 73 74 75 74 73 74 74 73 71 72 72 71 70 71 70 70 68 65 64 62 61
72 72 71 70 68 68 68 68 68 68 69 69 68 65 65 67 71 72 71 71 71 72 71 72 72 71 71 72 71 72 74 75 75 72 71 70 71 73 74 75 74 73 72 71 71 71 71 70 70 70 69 69 69 70 70 69 69 70 70 72 71 71 71 71 69 72 75 75 75 74 72 73 72 73 73 72 70 70 69 69 66 65 63 62 61
71 70 71 71 71 70 69 67 67 67 68 68 64 64 64 64 67 71 71 71 70 71 71 71 71 71 71 70 70 70 71 72 72 74 74 72 70 70 70 71 72 74 74 73 72 71 71 70 70 69 69 69 69 70 68 69 69 71 72 71 72 71 71 71 71 69 74 75 74 72 71 75 71 71 72 71 71 71 69 67 64 64 63 62 61
72 71 71 71 71 71 70 70 69 68 67 66 63 62 62 62 63 67 70 71 70 70 70 70 70 70 71 71 70 69 68 72 73 72 72 72 70 69 69 69 70 69 67 67 70 73 72 72 70 70 70 70 69 69 71 71 72 71 71 71 72 72 71 71 71 71 72 75 73 72 71 72 72 72 71 72 71 71 70 66 65 64 63 62 61
71 71 71 71 70 71 71 71 71 70 70 68 63 62 60 60 61 63 68 69 70 70 70 70 69 70 70 70 70 70 70 71 72 73 73 73 72 72 72 71 71 71 70 68 66 67 70 71 71 70 70 72 70 70 71 72 71 70 70 70 71 71 71 71 72 73 74 74 72 72 71 71 72 71 71 71 71 72 73 68 65 63 63 62 61
71 71 71 71 71 71 71 70 70 69 69 66 64 63 60 58 59 62 66 67 68 69 70 70 71 70 70 70 70 70 70 71 71 71 71 71 71 71 70 69 69 69 69 68 68 71 71 71 71 72 71 72 72 71 71 72 72 72 72 71 72 72 73 73 73 73 72 73 73 71 70 71 72 71 71 72 71 73 73 68 65 64 63 62 61
71 72 72 72 71 71 72 71 71 71 71 65 64 63 61 60 59 64 66 67 68 68 68 69 70 71 71 71 71 71 70 71 71 68 71 72 71 70 70 69 69 68 67 69 64 66 70 71 71 71 71 71 67 71 71 70 72 74 73 73 73 74 73 72 71 71 70 73 73 72 71 70 73 70 71 72 72 72 72 73 66 64 63 62 62
71 71 71 72 72 72 72 72 72 72 72 68 61 59 58 58 61 66 67 67 67 67 67 68 69 70 71 71 72 71 70 71 69 64 63 69 70 70 70 68 68 67 67 67 64 61 60 60 61 62 62 62 62 61 61 61 68 69 71 71 70 70 71 70 70 69 69 70 71 72 70 70 72 72 71 71 72 71 71 72 72 66 63 61 60
71 71 72 72 73 73 73 72 71 71 72 65 58 58 57 57 61 66 67 67 67 67 67 68 69 70 70 70 71 72 71 71 66 63 62 67 69 69 68 67 67 66 67 66 67 68 61 59 58 58 59 60 60 60 61 61 60 64 69 68 68 69 70 70 69 68 68 70 70 72 71 69 71 72 71 72 71 71 71 72 72 70 61 58 57
70 71 70 69 69 69 70 70 70 71 71 66 58 57 57 56 63 68 68 67 67 67 67 68 68 68 69 69 69 71 71 71 63 61 59 64 68 68 68 67 66 66 66 68 69 68 68 69 70 71 70 67 67 67 68 64 63 67 68 68 68 69 69 69 69 69 68 69 71 73 70 71 71 71 71 71 69 71 71 71 70 70 67 65 65